Volver al catálogo

STARLINK-2405

ActivoComunicacionesVLEO
NORAD 47919·PAYLOAD·🇺🇸 United States

Lanzado Mar 14, 2021 desde Cape Canaveral Space Force Station

Loading…

Próximos Pases (próximas 24 horas)

TLE

ActualizadoSource: CelesTrak SupGP

Época: Sep 15, 2026, 02:09 UTC

1 47919C 21021BM  26258.09006944  .00006491  00000+0  20887-3 0  2586
2 47919  53.1583 119.5358 0001466  76.8419  45.1673 15.31676415    17

Sigue STARLINK-2405 en tiempo real con AllMySat

Download on the App Store